SPACEMOBILE-010

Last updated on Mon Sep 21 2026 00:02:09 GMT+0000 (Coordinated Universal Time)

1 69591U 26139C 26263.22157037 .00001397 00000+0 95714-4 0 9996 2 69591 52.9945 191.2240 0002918 228.0641 132.0101 15.12742833 14377
UTC large
Height (km)
Speed (km/s)
/
Latitude / Longitude
Inclination (degrees)
Orbital Period (minutes)
Azimuth
Elevation
Range (km)
Doppler Factor

Next 0 passes for location: London (51.5072 / 0.1276)

No passes found over London.
SPACEMOBILE-010